Regional Weather Roundup
Issued by NWS

Home | Current Version | Previous Version | Graphics & Text | Print | Product List | Glossary On
Versions: 1 2 3 4 5 6 7 8 9 10 11 12 13 14 15 16 17 18 19 20 21 22 23 24 25 26 27 28 29 30 31 32 33 34 35 36 37 38 39 40 41 42 43 44 45 46 47 48 49 50
000
ASUS45 KBOU 251707
RWRCO

WEATHER ROUNDUP FOR COLORADO
NATIONAL WEATHER SERVICE DENVER/BOULDER CO
1100 AM MDT THU MAY 25 2017

NOTE: "FAIR" INDICATES FEW OR NO CLOUDS BELOW 12000 FEET WITH NO
SIGNIFICANT WEATHER AND/OR OBSTRUCTIONS TO VISIBILITY.

COZ001>005-013-030-031-251800-
...NORTHWEST COLORADO...

CITY           SKY/WX    TMP DP  RH WIND       PRES   REMARKS
CRAIG          LGT RAIN  52  42  69 S5        29.75F
HAYDEN         FAIR      50  37  62 NW7       29.76F
MEEKER         PTSUNNY   58  44  60 VRB3      29.74R
RABBIT EARS PA CLOUDY    36  34  93 W10G21    29.92R
STEAMBOAT SPGS CLOUDY    51  41  67 SE5       29.77S
WALDEN           N/A     52  36  54 SW14      29.81S
$$

COZ006>008-011-251800-
...WEST CENTRAL VALLEYS...

CITY           SKY/WX    TMP DP  RH WIND       PRES   REMARKS
GRAND JUNCTION FAIR      77  30  17 W15       29.60S
MONTROSE       FAIR      75  20  12 SW20G35   29.71R
EAGLE          MOSUNNY   72  32  23 S16       29.69F
RIFLE          PTSUNNY   72  34  24 N14G20    29.63S
DELTA          FAIR      82  21  10 SW26      29.64F
NUCLA          FAIR      75  19  12 SW22G29   29.76S
$$

COZ017>023-064>068-251800-
...SOUTHWEST COLORADO...

CITY           SKY/WX    TMP DP  RH WIND       PRES   REMARKS
DURANGO        FAIR      71  19  14 SW17      29.83F
CORTEZ         FAIR      74  20  13 SW20G30   29.79F
PAGOSA SPRINGS NOT AVBL
TELLURIDE      FAIR      57  15  19 SW17G30   29.96R
WOLF CREEK PAS CLOUDY    41  21  45 S18G29    30.15S
$$

COZ009-010-012-014-032>034-037-058>063-251800-
...CENTRAL COLORADO...

CITY           SKY/WX    TMP DP  RH WIND       PRES   REMARKS
ASPEN          FAIR      64  23  21 S15G25    29.78R
BUENA VISTA    FAIR      65  19  16 SW18G39   29.81R
COPPER MTN     FAIR      46  18  31 SW22G41   30.00S
BERTHOUD PASS  FAIR      37  28  70 W36G54    29.95S
COTTONWOOD PAS PTSUNNY   57  14  18 SW18G32   29.91R
GUNNISON       FAIR      66  21  18 W22G30    29.81R
KREMMLING      PTSUNNY   63  45  51 NW5       29.78S
LEADVILLE      FAIR      54  16  22 W17G33    29.89S
MONARCH PASS   CLOUDY    45  18  33 SW41G53   30.11F
SALIDA         PTSUNNY   71  16  12 W14G26    29.86F
SUNLIGHT       PTSUNNY   52  23  32 SW7G20    29.96R
WILKERSON PASS FAIR      50  19  29 SW17G28   29.98S
$$

COZ069>075-251800-
...SAN LUIS VALLEY/SANGRE DE CRISTO MOUNTAINS...

CITY           SKY/WX    TMP DP  RH WIND       PRES   REMARKS
ALAMOSA        FAIR      71  19  14 W25G32    29.83S
DEL NORTE      FAIR      68  21  17 SW25G32   29.86R
LA VETA PASS   PTSUNNY   55  21  26 MISG      30.08F
SAGUACHE       FAIR      68  21  17 NW24G33   29.83S
$$

COZ035-036-038>040-251800-
...NORTHERN COLORADO FRONT RANGE...

CITY           SKY/WX    TMP DP  RH WIND       PRES   REMARKS
DENVER INTL AP FAIR      76  41  28 N26G33    29.59R
DMNS CITY PARK   N/A     75  37  25 NE16G25   29.58S
AURORA         MOSUNNY   77  35  21 W8G17     29.60F
FRONT RANGE AP MOSUNNY   81  34  18 W12G18    29.61S
ERIE MUNI ARPT FAIR      64  42  45 N12       29.58F
BOULDER MUN AP FAIR      63  41  45 N13       29.59F
CENTENNIAL     FAIR      76  28  17 W10G22    29.60F
BROOMFIELD     PTSUNNY   72  39  30 N18       29.60F
FORT COLLINS   FAIR      62  43  49 S7        29.62R
LONGMONT       FAIR      61  46  58 N5        29.61F
$$

COZ041-046-047-076>085-087-088-251800-
...PIKES PEAK/PALMER DIVIDE AND SOUTHERN FOOTHILLS...

CITY           SKY/WX    TMP DP  RH WIND       PRES   REMARKS
COLO. SPRINGS  FAIR      79  23  12 W12G20    29.66F
A. F. ACADEMY  FAIR      75  25  15 SW16G22   29.66F
SCHRIEVER AFB  FAIR      77  27  15 SW15G22   29.67
CHEYENNE MTN   FAIR      73  21  14 S20G32    29.64
ELLICOTT         N/A    N/A N/A N/A W18G30    29.65F
FALCON         FAIR      74  22  14 W20G30    29.71F
FORT CARSON    FAIR      78  27  15 SW23G30   29.63F
LIMON          FAIR      80  31  16 W14       29.61F
MONUMENT HILL  FAIR      70  28  21 W21G36    29.73R
CANON CITY     NOT AVBL
WALSENBURG     FAIR      79  32  18 W30       29.70S
TRINIDAD       FAIR      80  24  12 W24G31    29.70S
$$

COZ042>045-048>051-090-091-251800-
...NORTHEAST COLORADO...

CITY           SKY/WX    TMP DP  RH WIND       PRES   REMARKS
GREELEY ARPT   LGT RAIN  66  48  52 W22G32    29.64R
AKRON          FAIR      72  46  39 N16       29.56F
BURLINGTON     FAIR      77  52  41 NE6       29.56S
WRAY           FAIR      79  46  31 N17G26    29.51F
YUMA           FAIR      70  41  35 N10       29.54F
STERLING       FAIR      72  52  49 E5        29.54R
HOLYOKE        NOT AVBL
FORT MORGAN    FAIR      72  47  41 E7        29.57F
$$

COZ086-089-092>099-251800-
...SOUTHEAST COLORADO...

CITY           SKY/WX    TMP DP  RH WIND       PRES   REMARKS
PUEBLO         FAIR      84  35  17 VRB6      29.57F
LA JUNTA       FAIR      87  36  16 W17       29.56F
LAMAR          FAIR      80  49  33 CALM      29.53F
SPRINGFIELD      N/A     86  32  14 W18G28    29.59R
$$



USA.gov is the U.S. government's official web portal to all federal, state and local government web resources and services.